Location: Brantley
(31.5822°N, 86.2569°W)
Time: 01:22:52
(UTC+00:00)

Vanguard 2 - Pass Details

Date: 24 February 2026
Orbit: 553 x 2896 km, 32.9° (Epoch: 10 March)

Event Time Altitude Azimuth Distance (km) Brightness Sun altitude
Rises 11:34:56 0° 272° (W) 4,376 - -9.8°
Reaches altitude 10° 11:38:30 10° 274° (W) 3,032 - -9.1°
Exits shadow 11:38:40 11° 274° (W) 2,968 9.8 -9.0°
Maximum altitude 11:45:24 78° 1° (N) 815 7.7 -7.6°
Drops below altitude 10° 11:49:56 10° 88° (E) 2,022 11.4 -6.6°
Sets 11:51:55 0° 89° (E) 2,820 12.8 -6.2°
